User: anonymous
Location: Lawrence Hall of Science
(37.8785°N, 122.2415°W)
Time: 06:00:20
(UTC-07:00)
Language:

Cosmos 1461 - Orbit

View from above orbital plane
View from above orbital plane
View from above satellite
View from above satellite

Ground track
Ground track

The orbit data is extracted from the following two-line orbital elements,

1 14064U 83044A   14204.87779948  .00000717  00000-0  86786-4 0  5679
2 14064 065.0054 313.9369 0094268 106.1722 031.7248 14.88717293565314
Epoch (UTC): 23 July 2014 21:04:01
Eccentricity: 0.0094268
inclination: 65.0054°
perigee height: 536 km
apogee height: 668 km
right ascension of ascending node: 313.9369°
argument of perigee: 106.1722°
revolutions per day: 14.88717293
mean anomaly at epoch: 31.7248°
orbit number at epoch: 56531

The dashed part of the orbit path shows where the satellite is in the earth's shadow,  

DLR